Location: Moena
(46.3667°N, 11.6500°E)
Time: 14:58:15
(UTC+00:00)

USA 234 - Pass Details

Date: 03 March 2021
Orbit: 1102 x 1105 km, 123.0° (Epoch: 18 April)

Event Time Altitude Azimuth Distance (km) Brightness Sun altitude
Exits shadow 19:39:58 37° 46° (NE) 1,639 3.9 -27.5°
Maximum altitude 19:42:47 78° 327° (NNW) 1,129 3.3 -28.0°
Drops below altitude 10° 19:49:19 10° 242° (WSW) 2,957 5.9 -29.0°
Sets 19:51:48 0° 241° (WSW) 3,913 6.6 -29.4°
